Location: Newark
(20.0000°S, 47.0000°E)
Time: 04:05:39
(UTC+00:00)

N. Korean satellite - Pass Details

Date: 24 March 2019
Orbit: 457 x 508 km, 97.2° (Epoch: 22 April)

Event Time Altitude Azimuth Distance (km) Brightness Sun altitude
Rises 15:42:33 0° 198° (SSW) 2,562 10.5 -10.9°
Reaches altitude 10° 15:45:42 10° 228° (SW) 1,659 10.1 -11.6°
Maximum altitude 15:47:11 12° 253° (WSW) 1,512 10.4 -12.0°
Drops below altitude 10° 15:48:40 10° 278° (W) 1,638 10.7 -12.3°
Sets 15:51:44 0° 309° (NW) 2,493 11.0 -13.0°
